Regional Weather Roundup
Issued by NWS

Home | Current Version | Previous Version | Text Only | Print | Product List | Glossary On
Versions: 1 2 3 4 5 6 7 8 9 10 11 12 13 14 15 16 17 18 19 20 21 22 23 24 25 26 27 28 29 30 31 32 33 34 35 36 37 38 39 40 41 42 43 44 45 46 47 48 49 50
000
ASUS43 KOAX 300802
RWRNE

WEATHER ROUNDUP FOR NEBRASKA
NATIONAL WEATHER SERVICE OMAHA NE
300 AM CDT TUE MAY 30 2017

NOTES: SATELLITE DATA IS BEING USED TO AUGMENT CLOUD COVER ABOVE
       12000 FEET.
       "FAIR" INDICATES FEW OR NO CLOUDS BELOW 12,000 FEET WITH NO
       SIGNIFICANT WEATHER AND/OR OBSTRUCTIONS TO VISIBILITY.

  * THESE STATIONS DO NOT REPORT WEATHER SUCH AS RAIN...SNOW OR FOG.

NEZ001>004-019>022-054>056-300900-
NEBRASKA PANHANDLE

CITY           SKY/WX    TMP DP  RH WIND       PRES   REMARKS
SCOTTSBLUFF    CLEAR     41  36  82 NW7       30.17S
ALLIANCE       CLEAR     35  32  88 NW6       30.16S WCI  30
CHADRON        CLEAR     40  36  86 SW7       30.14S
GORDON         FAIR      39  34  82 W3        30.14R
KIMBALL        CLEAR     44  41  91 SW7       30.21R
SIDNEY         CLEAR     41  38  89 W8        30.18F
$$

NEZ057>060-069>072-079>082-300900-
SOUTHWEST NEBRASKA

CITY           SKY/WX    TMP DP  RH WIND       PRES   REMARKS
NORTH PLATTE   CLEAR     42  39  89 SW3       30.13S
IMPERIAL       MOCLDY    56  46  69 W9        30.14F
LEXINGTON      CLEAR     46  40  79 NW5       30.11F
MCCOOK         CLEAR     51  46  83 SW8       30.10F
OGALLALA       CLEAR     43  39  87 NW3       30.15S
$$

NEZ005>010-023>029-035>040-094-300900-
NORTH CENTRAL NEBRASKA

CITY           SKY/WX    TMP DP  RH WIND       PRES   REMARKS
VALENTINE      PTCLDY    41  35  79 SW7       30.10S
AINSWORTH      CLEAR     46  39  78 W3        30.09F
BROKEN BOW     CLEAR     44  37  76 CALM      30.10S
O`NEILL        CLEAR     48  39  72 W5        30.07S
ORD            CLEAR     44  38  79 NW3       30.08S
THEDFORD       CLEAR     43  38  80 W3        30.13S
$$

NEZ041-046>049-061>064-073>077-083>087-300900-
SOUTH CENTRAL NEBRASKA

CITY           SKY/WX    TMP DP  RH WIND       PRES   REMARKS
GRAND ISLAND   CLEAR     50  43  77 W3        30.09S
AURORA         CLEAR     50  40  69 SW3       30.08S
HASTINGS       CLEAR     53  42  66 SW3       30.10S
HEBRON         MOCLDY    51  46  84 CALM      30.08S
HOLDREGE       CLEAR     50  42  73 CALM      30.10S
KEARNEY *      CLEAR     52  39  62 CALM      30.11S
YORK           CLEAR     50  41  71 SW7       30.08S
$$

NEZ011>018-030>034-042>045-300900-
NORTHEAST NEBRASKA

CITY           SKY/WX    TMP DP  RH WIND       PRES   REMARKS
NORFOLK        CLEAR     44  39  82 CALM      30.04S
ALBION         PTCLDY    44  39  85 N3        30.08R
BLAIR          CLEAR     56  42  61 CALM      30.03F
FREMONT        CLEAR     51  44  77 CALM      30.04F
TEKAMAH        CLEAR     51  40  65 SW8       30.03S
WAYNE          CLOUDY    48  42  82 CALM      30.03S
$$

NEZ050>053-065>068-078-088>093-300900-
SOUTHEAST NEBRASKA

CITY           SKY/WX    TMP DP  RH WIND       PRES   REMARKS
LINCOLN        CLEAR     48  43  82 CALM      30.06F
OMAHA EPPLEY   PTCLDY    53  44  71 CALM      30.04S
BEATRICE       CLEAR     50  46  85 CALM      30.06S
NEBRASKA CITY  CLEAR     54  39  56 SW7       30.06R
PLATTSMOUTH    CLEAR     58  41  52 CALM      30.04S
$$

NEZ044-045-051>053-067-300900-
OMAHA AREA

CITY           SKY/WX    TMP DP  RH WIND       PRES   REMARKS
OMAHA EPPLEY   PTCLDY    53  44  71 CALM      30.04S
BLAIR          CLEAR     56  42  61 CALM      30.03F
FREMONT        CLEAR     51  44  77 CALM      30.04F
MILLARD        CLEAR     51  49  90 CALM      30.04S
OFFUTT AFB     CLEAR     47  44  92 CALM      30.03S
PLATTSMOUTH    CLEAR     58  41  52 CALM      30.04S
WAHOO          FAIR      53  41  63 CALM      30.05S
$$



USA.gov is the U.S. government's official web portal to all federal, state and local government web resources and services.